LA8QT Lodingen NO current weather conditions

sailwx.info

Wind from 336

Air temperature 1.1° C
Dewpoint -1.0° C

Last reported at 2016-Feb-09 04:42 UTC.
Time now 2016-Feb-09 05:40 UTC

Location: N 68°28' E 016°04'.
View on Google Maps.

See reports from other nearby stations

  
Tides and Currents Weather Stations Pressure Air Temp Water Temp Dewpoint Dewpoint Depression Visibility Wind Speed Wind Dir Waves Ship Positions
date/time (UTC)wind fromknots sea level pressurealtimeterstation pressurevisibilityair tempwater tempwave heightnotes
2016-Feb-09 04:42 336 1.1
2016-Feb-09 04:27 336 0.6
2016-Feb-09 04:12 329 1.1
2016-Feb-09 03:57 324 1.1
2016-Feb-09 03:42 317 1.1
2016-Feb-09 03:27 360 0.6
2016-Feb-09 03:12 324 1.1
2016-Feb-09 02:57 350 -0.0
2016-Feb-09 02:42 344 -0.0
2016-Feb-09 02:27 339 -0.0
2016-Feb-09 02:12 325 1.1
2016-Feb-09 01:57 339 0.6
2016-Feb-09 01:42 319 -0.6
2016-Feb-09 01:27 029 -0.6
2016-Feb-09 01:12 055 -0.0
2016-Feb-09 00:57 239 -1.1
2016-Feb-09 00:42 010 -0.0
2016-Feb-09 00:27 006 -0.6
2016-Feb-09 00:12 325 -0.6
2016-Feb-08 23:57 356 -0.6
2016-Feb-08 23:42 347 -0.6
2016-Feb-08 23:27 353 -0.6
2016-Feb-08 23:12 350 -0.6
2016-Feb-08 22:57 019 -1.1
2016-Feb-08 22:42 004 -0.6
2016-Feb-08 22:27 011 -1.7
2016-Feb-08 22:12 348 -1.1
2016-Feb-08 21:57 348 -1.1
2016-Feb-08 21:42 347 -1.1
2016-Feb-08 21:27 347 -1.7
2016-Feb-08 21:12 006 -1.7
2016-Feb-08 20:57 006 -1.7
2016-Feb-08 20:42 243 -1.1
2016-Feb-08 20:27 244 -1.1
2016-Feb-08 20:12 244 -1.7
2016-Feb-08 19:57 235 -1.1
2016-Feb-08 19:42 235 -1.7
2016-Feb-08 19:26 235 -1.7
2016-Feb-08 19:11 233 -1.1
2016-Feb-08 18:56 223 -1.1
2016-Feb-08 18:41 223 -0.6
2016-Feb-08 18:26 223 -0.6
2016-Feb-08 18:11 223 -0.0
2016-Feb-08 17:56 223 -0.6
2016-Feb-08 17:41 221 -1.1
2016-Feb-08 17:26 221 -0.6
2016-Feb-08 17:11 221 -0.6
2016-Feb-08 16:56 221 -0.0
2016-Feb-08 16:41 221 -0.0
2016-Feb-08 16:26 221 0.6
2016-Feb-08 16:11 221 0.6
2016-Feb-08 15:56 221 1.1
2016-Feb-08 15:41 221 1.1
2016-Feb-08 15:26 221 1.1
2016-Feb-08 15:11 221 2 1.1
2016-Feb-08 14:56 171 1 1.1
2016-Feb-08 14:41 174 1.1
2016-Feb-08 14:26 175 1.1
2016-Feb-08 14:11 183 1.1
2016-Feb-08 13:56 184 0.6
2016-Feb-08 13:41 194 0.6
2016-Feb-08 13:26 354 0.6
2016-Feb-08 13:11 354 -0.0
2016-Feb-08 12:56 354 -0.0
2016-Feb-08 12:41 354 -0.0
2016-Feb-08 12:26 354 -0.0
2016-Feb-08 12:11 354 -0.0
2016-Feb-08 11:56 356 -0.0
2016-Feb-08 11:41 355 -0.0
2016-Feb-08 11:26 355 -0.0
2016-Feb-08 11:11 352 -0.0
2016-Feb-08 10:56 354 -0.6
2016-Feb-08 10:41 356 -0.6
2016-Feb-08 10:26 004 -0.6
2016-Feb-08 10:11 004 -0.6
2016-Feb-08 09:56 333 1 -0.6
2016-Feb-08 09:41 331 0 -0.6
2016-Feb-08 09:26 329 -0.6
2016-Feb-08 09:11 329 -0.6
2016-Feb-08 08:56 329 -0.6
2016-Feb-08 08:41 330 0 -0.6
2016-Feb-08 08:26 329 2 -0.6
2016-Feb-08 08:11 329 2 -0.6
2016-Feb-08 07:56 329 1 -0.6
2016-Feb-08 07:41 327 3 -0.6
2016-Feb-08 07:26 334 3 -0.6
2016-Feb-08 07:11 336 4 -0.6
2016-Feb-08 06:56 344 6 -0.6
2016-Feb-08 06:41 347 6 -0.6
2016-Feb-08 06:26 360 7 -0.6
2016-Feb-08 06:11 360 7 -0.6
2016-Feb-08 05:56 343 8 -0.6
2016-Feb-08 05:41 016 8 -0.6
2016-Feb-08 05:26 356 9 -0.6
2016-Feb-08 05:11 005 9 -0.0
2016-Feb-08 04:56 006 7 -0.0
2016-Feb-08 04:41 017 9 -0.6
2016-Feb-08 04:26 352 9 -0.6
2016-Feb-08 04:11 360 10 -0.6
2016-Feb-08 03:56 336 10 -0.0
2016-Feb-08 03:41 320 10 -0.0
2016-Feb-08 03:26 335 10 -0.0
2016-Feb-08 03:11 002 9 -0.0
2016-Feb-08 02:55 343 10 -0.0
2016-Feb-08 02:40 004 10 -0.0
2016-Feb-08 02:25 323 10 0.6
2016-Feb-08 02:10 351 7 1.1
2016-Feb-08 01:55 001 8 1.7
2016-Feb-08 01:40 002 7 1.7
2016-Feb-08 01:25 359 9 1.7
2016-Feb-08 01:10 350 9 1.7
2016-Feb-08 00:55 354 8 1.7
2016-Feb-08 00:40 329 13 2.2
2016-Feb-08 00:25 354 8 1.7
2016-Feb-08 00:10 354 8 1.7
2016-Feb-07 23:55 006 10 1.7
2016-Feb-07 23:40 022 13 1.7
2016-Feb-07 23:25 007 6 1.7
2016-Feb-07 23:10 001 6 1.7
2016-Feb-07 22:55 341 7 1.7
2016-Feb-07 22:40 004 6 1.7
2016-Feb-07 22:25 357 7 1.7
2016-Feb-07 22:10 344 6 1.7
2016-Feb-07 21:55 332 6 1.7
2016-Feb-07 21:40 357 6 1.7
2016-Feb-07 21:25 009 5 1.1
2016-Feb-07 21:10 340 5 1.1
2016-Feb-07 20:55 017 8 1.7
2016-Feb-07 20:40 007 6 1.1
2016-Feb-07 20:25 358 7 1.1
2016-Feb-07 20:10 356 8 1.1
2016-Feb-07 19:55 330 8 1.1
2016-Feb-07 19:40 350 8 1.1
2016-Feb-07 19:25 337 8 1.1
2016-Feb-07 19:10 002 9 1.1
2016-Feb-07 18:55 323 9 1.1
2016-Feb-07 18:40 323 8 1.1
2016-Feb-07 18:25 330 6 1.1
2016-Feb-07 18:10 327 7 1.1
2016-Feb-07 17:55 347 6 1.1
2016-Feb-07 17:40 340 6 1.1
2016-Feb-07 17:25 335 8 1.1
2016-Feb-07 17:10 310 7 1.1
2016-Feb-07 16:55 327 6 1.1
2016-Feb-07 16:40 336 6 1.1
2016-Feb-07 16:25 333 6 1.1
2016-Feb-07 16:10 326 6 1.1
2016-Feb-07 15:55 332 6 1.1
2016-Feb-07 15:40 335 7 1.1
2016-Feb-07 15:25 336 6 1.1
2016-Feb-07 15:10 006 5 1.1
2016-Feb-07 14:55 347 6 1.1
2016-Feb-07 14:40 334 5 1.1
2016-Feb-07 14:25 037 4 0.6
2016-Feb-07 14:10 002 3 1.1
2016-Feb-07 13:54 354 3 0.6
2016-Feb-07 13:39 352 3 0.6
2016-Feb-07 13:24 327 2 0.6
2016-Feb-07 13:09 013 5 1.1
2016-Feb-07 12:54 339 5 1.1
2016-Feb-07 12:39 006 6 1.1
2016-Feb-07 12:24 348 3 0.6
2016-Feb-07 12:09 357 4 0.6
2016-Feb-07 11:54 358 4 0.6
2016-Feb-07 11:39 353 4 0.6
2016-Feb-07 11:24 006 4 0.6
2016-Feb-07 11:09 346 4 0.6
2016-Feb-07 10:54 346 3 0.6
2016-Feb-07 10:39 343 3 0.6
2016-Feb-07 10:24 352 0 0.6
2016-Feb-07 10:09 346 1 0.6
2016-Feb-07 09:54 006 2 0.6
2016-Feb-07 09:39 003 0 -0.0
2016-Feb-07 09:24 003 1 -0.0
2016-Feb-07 09:09 009 3 0.6
2016-Feb-07 08:54 358 5 0.6
2016-Feb-07 08:39 005 2 0.6
2016-Feb-07 08:24 189 0.6
2016-Feb-07 08:09 189 1 1.1
2016-Feb-07 07:54 189 0 0.6
2016-Feb-07 07:39 189 0 0.6
2016-Feb-07 07:24 189 2 0.6
2016-Feb-07 07:09 189 3 0.6
2016-Feb-07 06:54 189 2 0.6
2016-Feb-07 06:39 215 4 0.6
2016-Feb-07 06:24 207 5 0.6
2016-Feb-07 06:09 206 5 -0.0
2016-Feb-07 05:54 204 5 -0.0
2016-Feb-07 05:39 208 3 -0.0
2016-Feb-07 05:24 210 4 -0.0
2016-Feb-07 05:09 207 4 -0.6